This is the latest recevied weather packets stored in our database for station/object KU9TRY. If no packets are shown the sender has not sent any weather packets the latest 10 day(s).
| Time | Temp. | Humidity | Pressure | Rain* | Wind** | Luminosity | Snow |
|---|---|---|---|---|---|---|---|
| 1777641543 | 10° C | 86% | 1015.9 hPa | 0 mm | - | 61 W/m² | - |
| 1777641238 | 10° C | 87% | 1015.8 hPa | 0 mm | - | 57 W/m² | - |
| 1777640935 | 9.44° C | 87% | 1015.9 hPa | 0 mm | - | 57 W/m² | - |
| 1777640632 | 8.89° C | 89% | 1016 hPa | 0 mm | - | 55 W/m² | - |
| 1777640328 | 8.89° C | 88% | 1016.1 hPa | 0 mm | - | 53 W/m² | - |
| 1777640025 | 8.33° C | 89% | 1015.9 hPa | 0 mm | - | 52 W/m² | - |
| 1777639722 | 8.33° C | 91% | 1016 hPa | 0 mm | - | 55 W/m² | - |
| 1777639420 | 7.78° C | 92% | 1016.1 hPa | 0 mm | - | 49 W/m² | - |
| 1777639120 | 7.78° C | 93% | 1015.9 hPa | 0 mm | - | 47 W/m² | - |
| 1777638817 | 7.22° C | 93% | 1015.9 hPa | 0 mm | - | 45 W/m² | - |
| 1777638518 | 7.22° C | 94% | 1015.8 hPa | 0 mm | - | 44 W/m² | - |
| 1777638215 | 6.67° C | 95% | 1016 hPa | 0 mm | - | 41 W/m² | - |
| 1777637911 | 6.67° C | 95% | 1015.9 hPa | 0 mm | - | 39 W/m² | - |
| 1777637607 | 6.11° C | 95% | 1016.1 hPa | 0 mm | - | 38 W/m² | - |
| 1777637305 | 6.11° C | 96% | 1015.9 hPa | 0 mm | - | 37 W/m² | - |
| 1777637001 | 5.56° C | 96% | 1015.8 hPa | 0 mm | - | 35 W/m² | - |
| 1777636697 | 5.56° C | 97% | 1015.6 hPa | 0 mm | - | 33 W/m² | - |
| 1777636394 | 5.56° C | 97% | 1015.6 hPa | 0 mm | - | 32 W/m² | - |
| 1777636089 | 5.56° C | 97% | 1015.6 hPa | 0 mm | - | 29 W/m² | - |
| 1777635784 | 5° C | 97% | 1015.7 hPa | 0 mm | - | 28 W/m² | - |
| 1777635481 | 5° C | 97% | 1015.6 hPa | 0 mm | - | 26 W/m² | - |
| 1777635178 | 4.44° C | 97% | 1015.6 hPa | 0 mm | - | 23 W/m² | - |
| 1777634874 | 4.44° C | 97% | 1015.4 hPa | 0 mm | - | 22 W/m² | - |
| 1777634571 | 4.44° C | 97% | 1015.6 hPa | 0 mm | - | 18 W/m² | - |
| 1777634268 | 4.44° C | 97% | 1015.4 hPa | 0 mm | - | 15 W/m² | - |
* Rain latest hour (hover to see other rain measurements)
** Current wind speed in m/s (hover to see current wind gust speed)